Time,TemperatureF,DewpointF,PressureIn,WindDirection,WindDirectionDegrees,WindSpeedMPH,WindSpeedGustMPH,Humidity,HourlyPrecipIn,Conditions,Clouds,dailyrainin,SoftwareType,DateUTC
2013-07-08 00:12:00,77.0,-99.9,-100.00,SW,224,2.0,2.0,-999,0.00,,,0.00,,2013-07-08 05:12:00,
2013-07-08 00:22:00,77.0,-99.9,-100.00,SW,224,2.0,2.0,-999,0.00,,,0.00,,2013-07-08 05:22:00,
2013-07-08 00:43:00,78.0,-99.9,-100.00,SE,125,0.0,2.0,-999,0.00,,,0.00,,2013-07-08 05:43:00,
2013-07-08 00:53:00,78.0,-99.9,-100.00,SE,125,0.0,2.0,-999,0.00,,,0.00,,2013-07-08 05:53:00,
2013-07-08 01:12:00,78.0,-99.9,-100.00,SW,215,1.0,2.0,-999,0.00,,,0.00,,2013-07-08 06:12:00,
2013-07-08 01:22:00,78.0,-99.9,-100.00,SW,215,1.0,2.0,-999,0.00,,,0.00,,2013-07-08 06:22:00,
2013-07-08 01:43:00,78.0,-99.9,-100.00,South,184,0.0,2.0,-999,0.00,,,0.00,,2013-07-08 06:43:00,
2013-07-08 01:53:00,78.0,-99.9,-100.00,South,184,0.0,2.0,-999,0.00,,,0.00,,2013-07-08 06:53:00,
2013-07-08 02:12:00,77.0,-99.9,-100.00,SSE,155,1.0,3.0,-999,0.00,,,0.00,,2013-07-08 07:12:00,
2013-07-08 02:22:00,77.0,-99.9,-100.00,SSE,155,1.0,3.0,-999,0.00,,,0.00,,2013-07-08 07:22:00,
2013-07-08 02:44:00,77.0,-99.9,-100.00,South,174,1.0,3.0,-999,0.00,,,0.00,,2013-07-08 07:44:00,
2013-07-08 02:53:00,77.0,-99.9,-100.00,South,174,1.0,3.0,-999,0.00,,,0.00,,2013-07-08 07:53:00,
2013-07-08 03:12:00,78.0,-99.9,-100.00,SSE,149,0.0,2.0,-999,0.00,,,0.00,,2013-07-08 08:12:00,
2013-07-08 03:22:00,78.0,-99.9,-100.00,SSE,149,0.0,2.0,-999,0.00,,,0.00,,2013-07-08 08:22:00,
2013-07-08 03:42:00,77.0,-99.9,-100.00,SSW,207,1.0,2.0,-999,0.00,,,0.00,,2013-07-08 08:42:00,
2013-07-08 03:53:00,77.0,-99.9,-100.00,SSW,207,1.0,2.0,-999,0.00,,,0.00,,2013-07-08 08:53:00,
2013-07-08 04:12:00,73.0,-99.9,-100.00,WNW,290,3.0,8.0,-999,0.10,,,0.10,,2013-07-08 09:12:00,
2013-07-08 04:22:00,73.0,-99.9,-100.00,WNW,290,3.0,8.0,-999,0.10,,,0.10,,2013-07-08 09:22:00,
2013-07-08 04:43:00,73.0,-99.9,-100.00,NNW,344,5.0,10.0,-999,0.29,,,0.29,,2013-07-08 09:43:00,
2013-07-08 04:53:00,73.0,-99.9,-100.00,NNW,344,5.0,10.0,-999,0.29,,,0.29,,2013-07-08 09:53:00,
2013-07-08 05:11:00,72.0,-99.9,-100.00,SSE,164,2.0,7.0,-999,0.47,,,0.57,,2013-07-08 10:11:00,
2013-07-08 05:22:00,72.0,-99.9,-100.00,SSE,164,2.0,7.0,-999,0.47,,,0.57,,2013-07-08 10:22:00,
2013-07-08 05:30:00,72.0,-99.9,-100.00,SE,142,2.0,9.0,-999,0.04,,,0.61,,2013-07-08 10:30:00,
2013-07-08 05:43:00,73.0,-99.9,-100.00,NNE,26,7.0,10.0,-999,0.32,,,0.61,,2013-07-08 10:43:00,
2013-07-08 05:53:00,73.0,-99.9,-100.00,NNE,26,7.0,10.0,-999,0.32,,,0.61,,2013-07-08 10:53:00,
2013-07-08 06:11:00,72.0,-99.9,-100.00,SE,142,2.0,9.0,-999,0.04,,,0.61,,2013-07-08 11:11:00,
2013-07-08 06:23:00,72.0,-99.9,-100.00,SE,142,2.0,9.0,-999,0.04,,,0.61,,2013-07-08 11:23:00,
2013-07-08 07:12:00,73.0,-99.9,-100.00,SSE,154,5.0,12.0,-999,0.00,,,0.61,,2013-07-08 12:12:00,
2013-07-08 07:22:00,73.0,-99.9,-100.00,SSE,154,5.0,12.0,-999,0.00,,,0.61,,2013-07-08 12:22:00,
2013-07-08 07:43:00,73.0,-99.9,-100.00,SSE,154,3.0,9.0,-999,0.00,,,0.61,,2013-07-08 12:43:00,
2013-07-08 07:53:00,73.0,-99.9,-100.00,SSE,154,3.0,9.0,-999,0.00,,,0.61,,2013-07-08 12:53:00,
2013-07-08 08:12:00,73.0,-99.9,-100.00,South,170,2.0,5.0,-999,0.00,,,0.61,,2013-07-08 13:12:00,
2013-07-08 08:22:00,73.0,-99.9,-100.00,South,170,2.0,5.0,-999,0.00,,,0.61,,2013-07-08 13:22:00,
2013-07-08 08:43:00,74.0,-99.9,-100.00,SSW,192,1.0,2.0,-999,0.00,,,0.61,,2013-07-08 13:43:00,
2013-07-08 08:53:00,74.0,-99.9,-100.00,SSW,192,1.0,2.0,-999,0.00,,,0.61,,2013-07-08 13:53:00,
2013-07-08 09:12:00,75.0,-99.9,-100.00,SE,145,1.0,6.0,-999,0.00,,,0.61,,2013-07-08 14:12:00,
2013-07-08 09:23:00,75.0,-99.9,-100.00,SE,145,1.0,6.0,-999,0.00,,,0.61,,2013-07-08 14:23:00,
2013-07-08 09:43:00,77.0,-99.9,-100.00,SSE,163,1.0,3.0,-999,0.00,,,0.61,,2013-07-08 14:43:00,
2013-07-08 09:53:00,77.0,-99.9,-100.00,SSE,163,1.0,3.0,-999,0.00,,,0.61,,2013-07-08 14:53:00,
2013-07-08 10:12:00,79.0,-99.9,-100.00,South,180,2.0,5.0,-999,0.00,,,0.61,,2013-07-08 15:12:00,
2013-07-08 10:22:00,79.0,-99.9,-100.00,South,180,2.0,5.0,-999,0.00,,,0.61,,2013-07-08 15:22:00,
2013-07-08 10:43:00,82.0,-99.9,-100.00,SSW,200,2.0,5.0,-999,0.00,,,0.61,,2013-07-08 15:43:00,
2013-07-08 10:53:00,82.0,-99.9,-100.00,SSW,200,2.0,5.0,-999,0.00,,,0.61,,2013-07-08 15:53:00,
2013-07-08 11:11:00,84.0,-99.9,-100.00,SSW,199,2.0,7.0,-999,0.00,,,0.61,,2013-07-08 16:11:00,
2013-07-08 11:22:00,84.0,-99.9,-100.00,SSW,199,2.0,7.0,-999,0.00,,,0.61,,2013-07-08 16:22:00,
2013-07-08 11:30:00,86.0,-99.9,-100.00,SW,227,1.0,3.0,-999,0.00,,,0.61,,2013-07-08 16:30:00,
2013-07-08 11:43:00,84.0,-99.9,-100.00,SSW,206,1.0,5.0,-999,0.00,,,0.61,,2013-07-08 16:43:00,
2013-07-08 11:59:00,84.0,-99.9,-100.00,SSW,206,1.0,5.0,-999,0.00,,,0.61,,2013-07-08 16:59:00,
2013-07-08 12:16:00,86.0,-99.9,-100.00,SW,227,1.0,3.0,-999,0.00,,,0.61,,2013-07-08 17:16:00,
2013-07-08 12:49:00,86.0,-99.9,-100.00,SSW,195,3.0,7.0,-999,0.00,,,0.61,,2013-07-08 17:49:00,
2013-07-08 13:00:00,87.0,-99.9,-100.00,SW,228,3.0,6.0,-999,0.00,,,0.61,,2013-07-08 18:00:00,
2013-07-08 13:27:00,87.0,-99.9,-100.00,SSW,209,3.0,7.0,-999,0.00,,,0.61,,2013-07-08 18:27:00,
2013-07-08 13:30:00,89.0,-99.9,-100.00,South,185,2.0,7.0,-999,0.00,,,0.61,,2013-07-08 18:30:00,
2013-07-08 14:00:00,90.0,-99.9,-100.00,West,266,1.0,4.0,-999,0.00,,,0.61,,2013-07-08 19:00:00,
2013-07-08 14:30:00,90.0,-99.9,-100.00,SW,236,2.0,4.0,-999,0.00,,,0.61,,2013-07-08 19:30:00,
2013-07-08 15:00:00,90.0,-99.9,-100.00,West,267,2.0,6.0,-999,0.00,,,0.61,,2013-07-08 20:00:00,
2013-07-08 15:24:00,90.0,-99.9,-100.00,SW,236,2.0,4.0,-999,0.00,,,0.61,,2013-07-08 20:24:00,
2013-07-08 15:30:00,90.0,-99.9,-100.00,South,187,3.0,8.0,-999,0.00,,,0.61,,2013-07-08 20:30:00,
2013-07-08 15:59:00,90.0,-99.9,-100.00,West,267,2.0,6.0,-999,0.00,,,0.61,,2013-07-08 20:59:00,
2013-07-08 16:00:00,91.0,-99.9,-100.00,WSW,239,2.0,5.0,-999,0.00,,,0.61,,2013-07-08 21:00:00,
2013-07-08 16:25:00,90.0,-99.9,-100.00,South,187,3.0,8.0,-999,0.00,,,0.61,,2013-07-08 21:25:00,
2013-07-08 16:30:00,91.0,-99.9,-100.00,SW,236,3.0,7.0,-999,0.00,,,0.61,,2013-07-08 21:30:00,
2013-07-08 17:00:00,91.0,-99.9,-100.00,SW,228,3.0,9.0,-999,0.00,,,0.61,,2013-07-08 22:00:00,
2013-07-08 18:00:00,89.0,-99.9,-100.00,SSE,168,2.0,4.0,-999,0.00,,,0.61,,2013-07-08 23:00:00,
2013-07-08 18:30:00,89.0,-99.9,-100.00,SSW,212,2.0,8.0,-999,0.00,,,0.61,,2013-07-08 23:30:00,
2013-07-08 19:00:00,88.0,-99.9,-100.00,SSW,211,1.0,2.0,-999,0.00,,,0.61,,2013-07-09 00:00:00,
2013-07-08 20:00:00,-999.0,-99.9,-100.00,SSE,168,1.0,2.0,-999,0.00,,,0.61,,2013-07-09 01:00:00,
2013-07-08 20:30:00,84.0,-99.9,-100.00,South,188,1.0,4.0,-999,0.00,,,0.61,,2013-07-09 01:30:00,
2013-07-08 21:30:00,83.0,-99.9,-100.00,South,180,0.0,2.0,-999,0.00,,,0.61,,2013-07-09 02:30:00,
2013-07-08 22:00:00,81.0,-99.9,-100.00,SSW,207,0.0,0.0,-999,0.00,,,0.61,,2013-07-09 03:00:00,
2013-07-08 22:28:00,83.0,-99.9,-100.00,South,180,0.0,2.0,-999,0.00,,,0.61,,2013-07-09 03:28:00,
2013-07-08 23:02:00,80.0,-99.9,-100.00,SE,142,1.0,2.0,-999,0.00,,,0.61,,2013-07-09 04:02:00,
2013-07-08 23:11:00,80.0,-99.9,-100.00,SE,142,1.0,2.0,-999,0.00,,,0.61,,2013-07-09 04:11:00,
2013-07-08 23:22:00,80.0,-99.9,-100.00,SE,142,1.0,2.0,-999,0.00,,,0.61,,2013-07-09 04:22:00,
2013-07-08 23:34:00,79.0,-99.9,-100.00,SW,225,1.0,2.0,-999,0.00,,,0.61,,2013-07-09 04:34:00,
2013-07-08 23:43:00,79.0,-99.9,-100.00,SW,225,1.0,2.0,-999,0.00,,,0.61,,2013-07-09 04:43:00,
2013-07-08 23:53:00,79.0,-99.9,-100.00,SW,225,1.0,2.0,-999,0.00,,,0.61,,2013-07-09 04:53:00,